Wind_Speed
28 28 28 27 27 28 28 28 28 28 29 29 29 29 30 29 29 29 29 29 29 29 29 28 28 28 28 29 29 29 29 29 29 29 30 30 28 28 28 28 29 28 28
26 26 26 27 27 28 27 27 28 29 29 29 29 28 28 28 28 28 28 28 29 29 28 28 27 27 28 28 28 28 28 29 29 28 28 29 29 28 28 28 28 28 28
25 25 25 26 26 26 26 26 26 27 28 27 26 26 26 27 27 27 26 26 26 27 27 27 27 27 27 27 28 27 27 27 27 27 27 28 28 28 27 27 27 27 27
24 24 24 25 25 25 25 25 25 25 24 24 24 24 25 25 24 25 25 26 25 25 26 26 26 26 26 26 26 27 27 26 26 26 27 26 27 27 27 27 27 26 26
23 22 23 23 23 22 23 22 22 23 22 22 22 22 22 22 22 23 24 25 25 25 24 24 24 24 24 25 25 25 26 25 25 26 26 26 26 26 26 27 27 26 26
22 21 21 21 20 21 21 21 21 20 20 20 20 21 21 21 21 21 21 22 22 22 22 22 23 23 24 24 24 24 25 25 24 25 25 25 25 26 25 25 26 26 26
20 20 20 19 19 19 20 20 19 19 19 19 20 20 20 20 19 19 20 20 19 20 21 21 22 22 23 23 23 23 23 24 24 25 25 25 25 25 25 25 25 25 25
19 18 18 18 18 18 19 19 17 17 17 17 17 17 17 17 17 18 17 17 18 19 19 20 21 21 21 22 22 22 22 23 23 23 24 24 25 25 25 24 24 25 25
18 17 17 17 17 17 17 17 16 16 16 16 17 16 15 15 15 15 15 16 17 17 18 19 18 18 19 19 19 20 20 20 21 21 22 23 24 24 25 25 25 24 24
17 16 16 16 16 16 15 15 15 14 14 14 15 15 14 14 14 14 15 16 16 17 18 17 16 17 16 16 16 16 16 17 18 18 19 21 21 22 22 23 24 24 24
16 15 15 16 15 15 13 13 13 14 13 13 13 13 13 13 14 14 14 15 15 15 16 14 14 14 13 13 13 13 13 14 15 16 17 18 19 20 20 21 22 22 23
16 16 15 15 13 13 12 13 13 13 12 12 13 14 14 13 14 13 14 14 15 14 13 13 13 13 12 11 11 11 12 12 14 15 16 16 17 17 18 19 20 21 22
16 15 15 14 13 13 12 13 12 12 12 12 13 13 13 14 14 14 14 14 14 14 13 13 12 12 11 11 10 10 11 12 12 13 13 13 14 15 17 18 18 19 20
15 15 14 14 14 13 13 12 12 12 12 13 13 13 13 13 13 13 14 14 13 13 12 12 11 11 10 10 10 9 9 10 10 10 11 12 13 14 15 15 16 17 18
14 14 14 15 15 14 13 13 12 13 13 13 12 13 13 13 13 13 13 13 13 12 11 11 11 10 9 9 8 8 7 7 8 9 9 10 11 12 12 13 14 15 16
14 14 14 15 15 15 14 13 13 14 14 14 13 13 13 13 13 13 13 13 12 12 11 10 10 9 8 8 8 7 7 7 7 8 8 8 9 10 10 11 12 13 14
14 15 15 15 15 15 14 14 13 14 14 13 13 13 13 13 12 12 13 13 12 11 10 10 10 9 8 8 8 8 8 8 8 8 8 8 9 9 10 10 12 13 14
15 15 15 15 15 15 14 15 15 15 14 14 14 13 13 13 13 14 13 14 13 12 11 10 10 9 9 9 9 9 9 9 9 8 8 9 10 10 11 11 12 12 13
15 15 15 15 15 15 15 15 15 15 15 15 15 15 14 14 14 14 14 15 14 12 12 11 11 10 10 10 11 11 10 10 10 10 10 11 11 12 13 13 14 14 14
15 15 15 15 16 16 16 16 17 17 16 17 17 16 15 15 15 15 15 15 14 13 13 13 13 12 12 12 12 12 12 12 11 11 11 12 12 13 14 14 14 15 16
15 15 15 16 16 16 16 16 17 17 17 17 17 17 17 16 16 16 16 15 15 14 14 14 13 13 13 13 13 13 13 12 12 12 13 13 13 14 14 14 14 15 16
16 15 15 16 16 16 17 17 18 18 18 18 17 18 18 17 17 17 17 17 16 15 15 15 14 13 14 14 14 15 14 14 14 14 14 14 14 14 15 15 16 17 18
17 17 17 17 17 17 18 18 18 19 19 19 19 19 18 18 18 18 17 17 17 17 17 16 16 15 15 15 16 16 16 16 16 16 16 16 16 16 16 17 18 18 19
18 18 18 18 18 19 19 19 19 20 20 19 19 19 19 18 18 19 19 19 19 18 18 18 17 16 16 17 17 18 18 18 18 18 18 18 18 18 19 19 20 20 21
19 19 19 19 20 20 20 21 21 21 21 20 20 20 20 20 20 21 21 20 20 20 20 19 19 19 19 19 20 20 19 19 19 20 20 21 21 21 21 21 22 23 24
20 20 21 22 22 22 22 22 22 22 23 22 22 22 22 22 22 23 23 22 22 23 23 22 22 22 22 22 22 22 22 22 22 23 23 23 24 25 24 23 23 24 25
Wind_Direction
292 292 293 293 293 293 294 293 291 290 290 288 288 289 287 284 283 284 285 284 282 280 279 278 276 274 271 269 267 266 265 264 263 261 261 260 260 259 257 257 258 257 256
292 291 291 292 294 295 295 294 292 291 291 291 292 289 288 286 284 284 284 285 284 281 279 278 276 274 272 270 267 266 265 263 262 261 260 258 258 257 256 256 255 255 254
295 294 294 293 295 297 297 295 294 293 293 294 293 290 289 288 287 285 286 287 286 282 280 279 277 275 273 270 269 267 266 264 262 260 259 259 258 256 253 254 255 254 254
302 300 299 298 299 298 299 298 297 296 294 294 294 293 291 289 287 285 286 288 288 286 283 280 279 277 274 271 269 267 266 264 261 259 259 258 259 258 254 254 253 254 253
307 305 305 303 301 300 300 300 299 300 299 298 298 296 293 291 288 289 289 290 289 288 286 284 281 279 276 273 270 266 264 262 259 259 258 257 257 258 257 255 253 252 252
310 310 309 308 306 304 305 305 306 306 304 301 301 299 298 297 294 293 293 292 291 289 286 284 281 279 276 274 270 267 264 261 259 259 258 257 256 257 257 255 253 252 251
314 313 313 312 312 311 310 311 310 309 309 303 300 301 300 299 299 298 297 296 294 292 289 285 283 280 277 274 272 268 264 261 259 258 257 257 256 257 256 254 252 252 251
318 316 315 315 313 314 314 316 315 315 313 310 309 304 304 304 303 304 303 302 299 295 292 290 287 282 277 276 273 269 265 263 260 258 256 256 255 255 254 254 254 253 252
323 321 320 317 317 318 319 317 319 319 318 315 313 313 309 304 303 304 306 307 303 298 296 295 293 289 284 278 275 270 265 263 259 258 256 254 253 252 251 251 252 252 251
325 324 323 322 321 320 321 319 319 320 320 316 314 314 315 312 310 308 310 310 307 304 301 298 295 295 291 285 277 272 267 262 259 258 256 256 254 252 249 249 249 249 249
332 331 329 327 326 325 325 325 326 324 323 321 322 321 321 321 320 318 319 318 314 310 308 304 303 302 298 291 283 273 268 263 260 259 259 257 253 251 249 249 248 248 247
341 340 336 333 330 330 331 329 328 328 330 329 327 325 323 322 325 325 326 324 323 321 318 315 313 312 306 298 290 279 273 268 263 260 259 256 253 250 249 249 249 248 246
347 346 344 343 344 343 339 336 333 333 333 334 334 331 329 328 329 330 329 327 327 326 325 326 321 317 315 307 299 290 280 275 271 266 260 257 253 252 251 250 249 248 245
352 353 353 353 351 351 350 347 344 343 342 341 340 341 341 340 340 338 338 336 333 331 330 328 327 324 321 317 304 299 289 281 274 267 263 260 256 254 251 248 248 246 244
1 0 359 358 357 356 357 355 354 353 350 349 346 343 344 344 342 342 342 341 340 340 339 335 332 331 327 324 318 312 306 296 286 278 269 262 254 250 249 249 249 244 243
4 4 5 4 4 4 1 359 359 359 357 354 353 352 350 348 349 350 348 346 344 345 346 344 339 337 336 336 331 324 316 305 295 287 279 270 260 254 254 251 249 247 246
4 3 4 6 6 5 3 3 2 0 358 357 354 354 354 351 349 349 348 348 346 345 344 344 341 337 337 334 331 325 320 314 305 292 281 271 261 259 259 257 254 253 252
4 4 4 4 4 6 7 7 7 5 3 1 357 356 354 351 349 347 344 343 344 345 345 342 338 337 338 336 331 326 323 317 307 296 286 275 268 266 264 263 261 259 257
3 4 5 7 9 10 11 10 8 6 5 2 358 354 351 350 349 347 345 343 341 338 338 336 334 330 328 327 327 325 321 317 311 302 292 284 276 271 268 266 264 263 263
6 6 6 7 8 7 6 5 2 1 0 358 355 353 351 349 348 345 343 343 342 340 336 331 326 321 319 319 320 319 317 313 309 304 296 288 282 277 273 269 266 266 265
6 4 4 4 3 2 1 359 357 357 358 357 355 352 350 349 347 343 342 339 336 335 332 330 328 324 319 316 317 317 316 314 308 304 300 293 285 278 272 270 271 271 269
4 2 0 358 357 356 354 353 353 350 349 350 350 349 347 345 344 344 342 340 337 332 328 324 322 320 318 318 316 315 313 310 307 304 303 296 289 284 277 274 274 272 268
3 2 360 357 356 354 352 352 350 347 345 344 342 341 339 339 339 339 338 334 332 330 328 326 324 318 314 312 311 312 310 308 306 303 301 296 291 285 281 278 277 276 275
1 359 357 354 351 349 347 346 345 344 343 341 339 339 337 337 338 336 334 330 327 327 326 323 319 316 312 310 309 308 308 307 305 303 301 297 292 285 281 278 278 277 276
358 355 353 351 349 346 344 342 342 341 340 339 336 333 333 331 330 330 328 326 325 324 323 320 318 315 312 309 308 308 308 307 306 302 298 296 293 288 284 281 279 278 277
355 353 351 350 347 344 343 342 341 340 339 338 335 332 330 329 326 326 326 323 320 319 319 318 315 314 311 306 303 302 302 302 302 300 296 295 293 290 287 284 281 281 280
Height
5775 5773 5771 5768 5766 5764 5762 5760 5757 5755 5754 5752 5750 5749 5747 5745 5744 5743 5742 5740 5739 5738 5738 5737 5737 5737 5737 5737 5738 5739 5741 5742 5743 5745 5746 5747 5749 5750 5751 5753 5755 5757 5759
5769 5766 5764 5762 5760 5757 5755 5753 5750 5748 5746 5745 5743 5741 5739 5738 5736 5735 5734 5733 5731 5730 5730 5729 5729 5729 5729 5729 5730 5731 5732 5733 5734 5736 5737 5739 5740 5742 5743 5745 5747 5749 5752
5762 5760 5757 5755 5753 5750 5748 5745 5743 5741 5739 5737 5735 5734 5732 5730 5729 5728 5726 5725 5724 5723 5722 5721 5721 5721 5721 5721 5721 5722 5723 5724 5726 5727 5729 5731 5732 5733 5735 5737 5739 5742 5744
5756 5753 5751 5748 5746 5744 5741 5739 5736 5734 5732 5731 5729 5727 5725 5724 5722 5721 5720 5718 5717 5716 5714 5714 5713 5713 5713 5713 5713 5714 5715 5716 5718 5719 5721 5723 5724 5725 5727 5729 5732 5734 5736
5750 5748 5745 5743 5740 5738 5735 5733 5731 5729 5726 5725 5723 5721 5719 5717 5716 5714 5713 5712 5710 5709 5707 5707 5706 5706 5705 5705 5706 5706 5707 5708 5710 5711 5713 5715 5716 5718 5720 5722 5724 5726 5728
5745 5742 5740 5737 5735 5733 5730 5728 5725 5723 5721 5719 5717 5715 5713 5712 5710 5708 5707 5706 5704 5702 5701 5700 5699 5699 5698 5698 5698 5699 5700 5701 5702 5703 5705 5707 5709 5710 5712 5714 5716 5719 5721
5741 5738 5736 5733 5731 5728 5726 5723 5721 5719 5717 5715 5713 5711 5709 5707 5705 5704 5702 5700 5699 5697 5696 5694 5693 5692 5691 5691 5691 5691 5692 5693 5694 5696 5698 5699 5701 5703 5705 5707 5709 5711 5713
5738 5735 5732 5730 5727 5725 5722 5720 5717 5715 5714 5711 5709 5707 5705 5703 5701 5699 5697 5696 5694 5692 5691 5689 5688 5686 5685 5684 5684 5684 5685 5686 5687 5689 5690 5692 5694 5695 5697 5700 5701 5704 5706
5735 5732 5730 5727 5724 5722 5719 5717 5714 5713 5710 5708 5706 5704 5702 5700 5698 5696 5694 5692 5690 5688 5686 5684 5682 5681 5680 5679 5678 5678 5678 5679 5680 5681 5683 5684 5686 5688 5690 5692 5694 5697 5699
5733 5730 5727 5724 5721 5719 5716 5714 5712 5710 5707 5706 5703 5701 5699 5697 5695 5693 5691 5689 5686 5684 5682 5680 5678 5676 5675 5673 5673 5673 5673 5673 5674 5675 5676 5678 5679 5681 5683 5685 5687 5689 5691
5731 5728 5725 5722 5719 5716 5714 5712 5709 5707 5705 5703 5701 5699 5697 5694 5692 5690 5688 5685 5683 5681 5678 5676 5675 5673 5671 5670 5669 5668 5668 5669 5669 5670 5671 5672 5673 5675 5677 5679 5680 5683 5685
5729 5726 5723 5720 5717 5714 5712 5710 5707 5705 5703 5701 5699 5697 5694 5692 5690 5688 5685 5683 5680 5678 5676 5674 5672 5670 5668 5667 5666 5665 5665 5665 5665 5665 5666 5667 5668 5669 5671 5673 5674 5676 5678
5728 5725 5722 5719 5716 5713 5711 5708 5706 5704 5702 5700 5698 5695 5693 5691 5688 5686 5683 5680 5678 5676 5673 5671 5669 5668 5666 5665 5664 5663 5662 5662 5662 5662 5662 5663 5664 5665 5666 5667 5669 5671 5672
5728 5725 5722 5719 5716 5713 5711 5708 5706 5703 5701 5699 5697 5694 5692 5689 5687 5684 5682 5679 5677 5674 5672 5670 5668 5666 5664 5663 5661 5660 5660 5659 5659 5659 5659 5659 5660 5660 5661 5662 5664 5665 5667
5728 5725 5722 5719 5716 5713 5710 5708 5706 5703 5700 5698 5696 5693 5691 5688 5686 5683 5680 5678 5675 5673 5671 5669 5667 5665 5663 5661 5660 5659 5658 5657 5657 5656 5656 5656 5656 5657 5658 5658 5660 5661 5662
5728 5725 5722 5720 5717 5714 5711 5708 5706 5703 5700 5698 5695 5692 5690 5687 5685 5682 5680 5677 5674 5672 5670 5668 5666 5664 5662 5661 5659 5658 5657 5656 5655 5655 5654 5654 5654 5654 5655 5655 5656 5657 5658
5729 5726 5723 5720 5717 5714 5711 5708 5706 5703 5700 5697 5695 5692 5689 5687 5684 5682 5679 5677 5674 5672 5669 5667 5665 5664 5662 5660 5658 5657 5655 5654 5653 5652 5652 5651 5652 5652 5652 5653 5653 5654 5654
5729 5726 5723 5721 5717 5714 5712 5709 5706 5703 5700 5697 5695 5692 5689 5687 5684 5681 5679 5676 5673 5671 5669 5667 5665 5663 5661 5659 5657 5655 5654 5653 5651 5650 5649 5649 5649 5649 5649 5650 5650 5650 5651
5730 5727 5724 5721 5718 5715 5712 5709 5706 5704 5701 5698 5695 5692 5689 5686 5683 5681 5678 5675 5673 5670 5668 5666 5664 5661 5660 5658 5656 5654 5652 5651 5649 5648 5647 5646 5646 5646 5646 5646 5646 5646 5646
5730 5727 5724 5722 5719 5716 5713 5710 5707 5704 5701 5698 5694 5691 5688 5685 5683 5680 5677 5674 5671 5669 5666 5664 5662 5660 5658 5656 5654 5652 5650 5648 5647 5646 5645 5643 5643 5642 5642 5641 5641 5641 5641
5731 5728 5725 5722 5719 5716 5713 5710 5707 5704 5700 5697 5694 5691 5687 5684 5681 5678 5675 5672 5670 5667 5665 5662 5660 5658 5655 5654 5652 5650 5648 5646 5644 5643 5641 5640 5639 5638 5637 5637 5637 5636 5636
5731 5728 5725 5723 5719 5716 5713 5710 5707 5703 5700 5696 5693 5689 5686 5683 5680 5677 5674 5671 5667 5665 5662 5659 5657 5655 5653 5651 5649 5647 5645 5643 5641 5640 5638 5636 5635 5634 5633 5632 5632 5631 5631
5732 5729 5726 5722 5719 5716 5712 5709 5705 5702 5698 5695 5691 5688 5685 5681 5678 5675 5671 5668 5665 5662 5659 5657 5654 5652 5650 5648 5646 5643 5641 5639 5637 5635 5634 5632 5630 5629 5628 5627 5626 5625 5625
5732 5729 5725 5722 5718 5714 5711 5707 5704 5700 5696 5693 5689 5686 5682 5678 5675 5672 5669 5666 5662 5659 5657 5654 5651 5649 5646 5644 5642 5639 5637 5634 5632 5631 5629 5627 5625 5623 5622 5621 5620 5619 5618
5732 5729 5725 5721 5717 5713 5709 5706 5702 5698 5694 5691 5687 5683 5679 5676 5672 5669 5666 5662 5659 5656 5653 5650 5647 5645 5642 5639 5637 5634 5632 5629 5627 5625 5623 5621 5619 5617 5616 5614 5613 5612 5610
5732 5728 5724 5720 5715 5711 5707 5703 5699 5695 5692 5688 5684 5680 5676 5673 5669 5665 5662 5659 5655 5652 5649 5646 5642 5639 5636 5634 5631 5628 5626 5623 5621 5619 5616 5614 5612 5610 5608 5606 5605 5603 5602